COMPASS
1 32787U 08021E 13059.89640883 .00001454 00000-0 17638-3 0 5563
2 32787 097.7657 121.2351 0013365 300.6478 175.5075 14.85020045261896
AAUSAT2
1 32788U 08021F 13059.18070641 .00001454 00000-0 17465-3 0 5462
2 32788 097.7667 121.0825 0012975 302.8531 090.7123 14.85437123261826
DO-64
1 32789U 08021G 13059.86450816 .00002572 00000-0 28815-3 0 5704
2 32789 097.7806 124.9228 0012613 293.5065 178.4883 14.87667100262019
CO-66
1 32791U 08021J 13059.18468880 .00001080 00000-0 13504-3 0 5423
2 32791 097.7662 120.0367 0013890 304.1483 121.1337 14.84249932261704
RS-30
1 32953U 08025A 13059.72437483 .00000010 00000-0 00000 0 0 6350
2 32953 082.5037 135.6414 0020174 109.2243 251.1021 12.43031551216431
METEOR-M
1 35865U 09049A 13059.71678726 -.00000021 00000-0 10130-4 0 2470
2 35865 098.6174 114.7333 0003173 041.3895 318.7518 14.21880365179053
RS-38
1 35869U 09049E 13059.69793808 .00000004 00000-0 21171-4 0 2219
2 35869 098.6121 114.6588 0005282 036.0942 324.0590 14.22114123179072
JUGNU
1 37839U 11058B 13059.84747050 .00000386 00000-0 64551-4 0 3411
2 37839 019.9608 243.2197 0018876 170.0129 320.5916 14.12126927 71563
SRMSAT
1 37841U 11058D 13058.90990266 .00000362 00000-0 54612-4 0 3421
2 37841 019.9713 258.7972 0011841 116.5761 024.7044 14.10202243 71331
RAX-2
1 37853U 11061D 13059.90145692 .00002234 00000-0 17954-3 0 4387
2 37853 101.7141 223.4657 0239033 337.5573 163.8450 14.82403228 72397
AUBIESAT
1 37854U 11061E 13059.90649442 .00002549 00000-0 19948-3 0 4373
2 37854 101.7177 224.1270 0239286 336.4284 164.0281 14.83008323 72408
HRBE
1 37855U 11061F 13059.60416759 .00002280 00000-0 18042-3 0 4325
2 37855 101.7177 223.5202 0240095 337.6195 086.6499 14.82733890 72358
RS-39
1 38051U 11062C 13059.83082524 .00007565 00000-0 27266-3 0 2146
2 38051 051.6380 012.2836 0011261 229.9336 149.5850 15.29479491 61188
E-STAR
1 38079U 12006C 13060.06010160 .00033107 32467-5 71602-3 0 9327
2 38079 069.4909 079.7122 0663005 278.7460 073.8965 14.35152389 54174
GOLIAT
1 38085U 12006J 13059.50955505 .00028148 31947-5 62157-3 0 8642
2 38085 069.4852 082.4386 0669280 280.1084 072.5230 14.33497066 54051
HORYU-2
1 38340U 12025D 13059.11771371 .00000664 00000-0 11750-3 0 3913
2 38340 098.2048 005.9202 0011724 236.9784 123.0296 14.70637035 42086
RS-40
1 38736U 12041D 13058.84895523 .00000010 00000-0 00000 0 0 1987
2 38736 082.4748 223.2992 0020426 198.2010 161.8343 12.43229714 26667
PROITERES
1 38756U 12047B 13059.78480678 .00000324 00000-0 57170-4 0 5527
2 38756 098.2629 134.8069 0013801 092.1898 268.0887 14.74086510 25426
RAIKO
1 38852U 98067CN 13058.88339686 .00035934 00000-0 40744-3 0 1543
2 38852 051.6415 285.9266 0012944 308.8639 051.1199 15.61924032 22705
FITSAT 1
1 38853U 98067CP 13059.86980832 .00056434 00000-0 57785-3 0 1538
2 38853 051.6433 279.7818 0009523 323.7260 036.3088 15.64375305 22927
TechEdSat
1 38854U 98067CQ 13058.86416700 .00089278 00000-0 70112-3 0 1739
2 38854 051.6393 282.0319 0007356 311.3824 048.6540 15.70738815 22809
F 1
1 38855U 98067CR 13059.84705248 .00098771 00000-0 79562-3 0 1766
2 38855 051.6388 277.3400 0007664 316.9335 043.1062 15.70083796 22846
WeWish
1 38856U 98067CS 13059.84833513 .00496549 11161-3 12083-2 0 2127
2 38856 051.6332 269.7274 0009274 275.8671 084.1298 15.95596590 22951
